Location: Caltech
(34.1382°N, 118.1253°W)
Time: 03:09:47
(UTC-07:00)

ASTRO E2 - Visible Passes

Search period start: 29 September 2016 00:00
Search period end: 09 October 2016 00:00
Orbit: 517 x 524 km, 31.4° (Epoch: 28 September)

Date Brightness Start Highest point End Pass type
(mag) Time Alt. Az. Time Alt. Az. Time Alt. Az.
29 Sep 3.4 19:41:20 10° W 19:45:13 45° S 19:47:22 23° SE visible
30 Sep 3.6 19:25:08 10° W 19:28:57 42° SSW 19:32:03 14° SE visible
30 Sep 5.6 21:06:35 10° WSW 21:07:02 12° WSW 21:07:02 12° WSW visible
01 Oct 3.8 19:08:55 10° W 19:12:41 38° SSW 19:16:26 10° SE visible
01 Oct 5.4 20:50:43 10° WSW 20:51:47 13° SW 20:51:47 13° SW visible
02 Oct 4.0 18:52:43 10° W 18:56:23 34° SSW 19:00:04 10° SE visible
02 Oct 5.4 20:35:05 10° SW 20:36:28 11° SSW 20:36:36 11° SSW visible
